OBJECT D, 60015

Orbit data source: Space-Track

You're viewing an Uncataloged Satellite

Recently launched and/or uncataloged satellites may have evolving metadata. Metadata may include but not limited to: Owner, Maufacturer, Bus, Motor, and Mission.

OBJECT D, 60015 is a satellite owned by Xinghe Dongli (CN) in SSO that was launched on Thu, 06 Jun 2024 UTC via a GUSHENXING 1 launch vehicle from the Jiuquan Satellite Launch Center, China (JSC). Unknown objects in Earth's orbit typically refer to objects detected orbiting the Earth but have not yet been identified or cataloged. These objects could be anything from previously untracked satellites, spent rocket stages, debris from satellite collisions, or even natural meteoroids temporarily captured by Earth's gravity.

Loading next visibility...
Identifier
60015, 2024-110D
Orbit
SSO
Last TLE update
3 hours ago
Origin
Flag of CNGalactic Energy Co. (CN / PRC)
Manufacturer
Xinghe Dongli
Mission
Spacecraft
Bus & Motor
LSP, EDGE
Mass
20 kg wet, 20 kg dry
Launch date (UTC)
2024-06-06 (1 year ago)
Launch vehicle
GUSHENXING 1
Launch site
Jiuquan Satellite Launch Center, China (JSC)
Object type
Unknown
Shape & HBR
Unknown
Radar Cross Section
Medium (>0.1 m² and <1 m²)

Expand to show TLE details & history

TLE from 3 hours ago
0 OBJECT D
1 60015U 24110D   25190.19440506  .00005293  00000-0  26975-3 0  9997
2 60015  97.5840 280.4666 0011585  16.2092 343.9510 15.17152197 60122
Epoch: 2025-07-09T04:39Z
TLE epoch observation values (Epoch: 2025-07-09T04:39:56.597Z)
Latitude
0.00006°
Longitude
-76.89776°
Altitude
509.859 km
Speed
7.613 km/s
True Right ascension
18h 41m 51s
True Declination
0° 00' 00"
Sunlit
Object was in full shadow at epoch
Visualization orbit readout
Latitude
68.10117°
Longitude
-95.98578°
Altitude
521.496 km
Speed
7.612 km/s
Apparent Right ascension
10h 18m 57s
Apparent Declination
33° 28' 46"
Sunlit
Object is in daylight
Visualization observer readout
Local Sidereal Time
20:17:43
Azimuth
334.567° NNW
Elevation
-11.439°
Doppler factor
1
Orbital elements
Apogee altitude
519.411 km
Perigee altitude
503.448 km
Semi-major axis
6,889.567 km
Eccentricity
0.00116
Inclination
97.584°
RAAN
280.4666°
Arg. of periapsis
16.2092°
True anomaly
Unknown
Mean anomaly
343.951°
Eccentric anomaly
Unknown
Mean motion
3.79538 °/min
Orbital period
94.85 mins
BSTAR
0.00026975
Loading maneuver chart data...
Loading SW <> Apogee altitude chart data...
Loading historical data...
Loading historical data...
Loading historical data...
Loading historical data...
Loading historical data...
Loading historical data...
Loading historical data...
Other satellites on launch #110 in the year 2024 (2024-06-06 UTC)

OBJECT D Visibility forecast

Observer location: undefined°, undefined°

Span
Click to sort rows by Start time (UTC) header in descending order
Start Az.
Max El. time (UTC)
Max El. Az.
Max El.
End time (UTC)
End Az.
4 mins2025-07-09 17:55:06.393Z61.75° ENE2025-07-09 17:57:06.393Z96.081° ESE14.485°2025-07-09 17:59:06.393Z128.696° SE
5 mins2025-07-09 19:29:06.393Z338.561° N2025-07-09 19:31:06.393Z286.036° WNW28.672°2025-07-09 19:34:06.393Z225.643° WSW
5 mins2025-07-10 06:08:06.393Z171.255° S2025-07-10 06:10:06.393Z264.53° W44.786°2025-07-10 06:13:06.393Z345.71° N
|